Regional Weather Roundup
Issued by NWS

Home | Current Version | Previous Version | Graphics & Text | Print | Product List | Glossary On
Versions: 1 2 3 4 5 6 7 8 9 10 11 12 13 14 15 16 17 18 19 20 21 22 23 24 25 26 27 28 29 30 31 32 33 34 35 36 37 38 39 40 41 42 43 44 45 46 47 48 49 50
000
ASUS45 KCYS 022110
RWRWY

WYOMING REGIONAL WEATHER ROUNDUP
NATIONAL WEATHER SERVICE CHEYENNE WY
200 PM MST MON MAR 02 2015

NOTE:  "FAIR" INDICATES FEW OR NO CLOUDS BELOW 12,000 FEET
WITH NO SIGNIFICANT WEATHER AND/OR OBSTRUCTIONS TO VISIBILITY.

WYZ001-022200-
YELLOWSTONE NATIONAL PARK

CITY           SKY/WX    TMP DP  RH WIND       PRES   REMARKS
LK YELLOWSTONE   N/A     27  13  55 VRB3      29.67F
W YELLOWSTONE  NOT AVBL

$$
WYZ002>013-054>058-071-098>099-022200-
NORTHERN WYOMING

CITY           SKY/WX    TMP DP  RH WIND       PRES   REMARKS
JACKSON        MOSUNNY   27  16  63 CALM      29.68F
CODY           FAIR      39  14  35 E8        29.69F WCI  34
GREYBULL       FAIR      39  13  34 VRB3      29.72F
WORLAND        FAIR      36  17  46 W3        29.70F
SHERIDAN       FAIR      40  15  36 SW5       29.73F
BUFFALO        FAIR      40   5  23 CALM      29.72F
GILLETTE       FAIR      44   8  23 CALM      29.71F
HULETT         FAIR      41  21  45 SW7       29.74F
NEWCASTLE      FAIR      39  21  48 CALM      29.74F

$$
WYZ014>020-022>026-101>103-022200-
CENTRAL WYOMING

CITY           SKY/WX    TMP DP  RH WIND       PRES   REMARKS
BIG PINEY      CLOUDY    31  19  61 CALM      29.68F
PINEDALE       CLOUDY    28  18  64 NE5       29.67F WCI  23
DUBOIS         CLOUDY    30  18  59 SE15      29.61F WCI  19
LANDER         CLOUDY    26  14  60 CALM      29.69F
RIVERTON       CLOUDY    23  13  65 NE3       29.70F
CASPER         LGT RAIN  38  31  76 SW8       29.68F WCI  32
DOUGLAS        CLOUDY    37  25  61 SE12      29.72F WCI  29

$$
WYZ021-027>030-104>119-022200-
SOUTHERN WYOMING

CITY           SKY/WX    TMP DP  RH WIND       PRES   REMARKS
EVANSTON       CLOUDY    30  23  75 E7        29.64F WCI  23
KEMMERER       CLOUDY    32  27  80 E5        29.67S WCI  27
FORT BRIDGER   CLOUDY    29  26  88 CALM      29.70F
ROCK SPRINGS   SNOW      31  29  92 N8        29.64F VSB 1/4 WCI  23
DIXON          MOCLDY    45  35  66 S17       29.67F
RAWLINS        CLOUDY    31  28  89 E6        29.66F FOG     WCI  25
SARATOGA       CLOUDY    37  34  87 SE6       29.66F WCI  33
LARAMIE        FAIR      43  31  62 SW17      29.66F
CHEYENNE       FAIR      35  24  64 S8        29.70F WCI  29
TORRINGTON     FAIR      46  24  42 SE13G21   29.72F
PINE BLUFFS    FAIR      41  25  52 S6G17     29.74F

$$


USA.gov is the U.S. government's official web portal to all federal, state and local government web resources and services.